When you browse on this site, cookies collect data to enhance your experience and personalize the content and advertising you see.
Visit our Privacy Policy to learn more. By continuing to use the site, you agree to this use of cookies and data.
  • En España
  • Lista de países
  • Para 7 días
  • Temperatura del agua
  • El tiempo en el mapa
  • Informadores
  • user-avatar
    Iniciar sesión

    Tiempo cada hora Shibam

    Hoy, 21 Septiembre, Sábado

    Tiempo Temperatura Precipitaciones Viento Presión Humedad
    00:00 +18°C° 0 mm 4 mps 560 mmHg 45%
    01:00 +18°C° 0 mm 4 mps 559 mmHg 43%
    02:00 +17°C° 0 mm 4 mps 559 mmHg 41%
    03:00 +17°C° 0 mm 4 mps 558 mmHg 42%
    04:00 +15°C° 0 mm 4 mps 558 mmHg 41%
    05:00 +15°C° 0 mm 4 mps 558 mmHg 40%
    06:00 +14°C° 0 mm 3 mps 558 mmHg 39%
    07:00 +17°C° 0 mm 4 mps 559 mmHg 34%
    08:00 +17°C° 0 mm 5 mps 560 mmHg 30%
    09:00 +20°C° 0 mm 7 mps 561 mmHg 25%
    10:00 +21°C° 0 mm 6 mps 561 mmHg 23%
    11:00 +22°C° 0 mm 5 mps 561 mmHg 21%
    12:00 +23°C° 0 mm 5 mps 562 mmHg 19%
    13:00 +23°C° 0 mm 5 mps 561 mmHg 19%
    14:00 +23°C° 0 mm 5 mps 561 mmHg 18%
    15:00 +25°C° 0 mm 5 mps 561 mmHg 17%
    16:00 +23°C° 0.1 mm 5 mps 560 mmHg 24%
    17:00 +21°C° 0.1 mm 5 mps 560 mmHg 30%
    18:00 +20°C° 0.1 mm 5 mps 559 mmHg 37%
    19:00 +19°C° 0.1 mm 4 mps 559 mmHg 36%
    20:00 +19°C° 0.1 mm 4 mps 559 mmHg 36%
    21:00 +18°C° 0.1 mm 3 mps 559 mmHg 35%
    22:00 +18°C° 0 mm 3 mps 559 mmHg 34%
    23:00 +17°C° 0 mm 3 mps 559 mmHg 33%

    Mañana, 22 Septiembre, Domingo

    Tiempo Temperatura Precipitaciones Viento Presión Humedad
    00:00 +17°C° 0 mm 3 mps 559 mmHg 32%
    01:00 +16°C° 0 mm 3 mps 558 mmHg 32%
    02:00 +16°C° 0 mm 3 mps 558 mmHg 32%
    03:00 +14°C° 0 mm 3 mps 558 mmHg 32%
    04:00 +14°C° 0 mm 3 mps 558 mmHg 34%
    05:00 +14°C° 0 mm 3 mps 558 mmHg 35%
    06:00 +13°C° 0 mm 3 mps 558 mmHg 37%
    07:00 +16°C° 0 mm 3 mps 559 mmHg 33%
    08:00 +18°C° 0 mm 4 mps 560 mmHg 30%
    09:00 +20°C° 0 mm 5 mps 561 mmHg 27%
    10:00 +21°C° 0 mm 5 mps 562 mmHg 24%
    11:00 +22°C° 0 mm 5 mps 562 mmHg 22%
    12:00 +23°C° 0 mm 5 mps 562 mmHg 20%
    13:00 +23°C° 0 mm 5 mps 562 mmHg 21%
    14:00 +23°C° 0 mm 5 mps 561 mmHg 23%
    15:00 +23°C° 0 mm 5 mps 561 mmHg 24%
    16:00 +22°C° 0.2 mm 4 mps 560 mmHg 31%
    17:00 +21°C° 0.2 mm 4 mps 560 mmHg 38%
    18:00 +20°C° 0.2 mm 3 mps 559 mmHg 45%
    19:00 +19°C° 0.1 mm 2 mps 560 mmHg 48%
    20:00 +19°C° 0.1 mm 2 mps 560 mmHg 50%
    21:00 +19°C° 0.1 mm 1 mps 560 mmHg 52%
    22:00 +19°C° 0 mm 1 mps 560 mmHg 52%
    23:00 +19°C° 0 mm 1 mps 560 mmHg 52%

    Pasado mañana, 23 Septiembre, Lunes

    Tiempo Temperatura Precipitaciones Viento Presión Humedad
    00:00 +16°C° 0 mm 0 mps 559 mmHg 52%
    01:00 +16°C° 0 mm 0 mps 559 mmHg 53%
    02:00 +15°C° 0 mm 0 mps 559 mmHg 54%
    03:00 +15°C° 0 mm 0 mps 558 mmHg 55%
    04:00 +15°C° 0 mm 0 mps 558 mmHg 54%
    05:00 +14°C° 0 mm 0 mps 558 mmHg 53%
    06:00 +14°C° 0 mm 0 mps 558 mmHg 52%
    07:00 +18°C° 0 mm 1 mps 559 mmHg 44%
    08:00 +20°C° 0 mm 1 mps 561 mmHg 36%
    09:00 +20°C° 0 mm 2 mps 562 mmHg 28%
    10:00 +21°C° 0 mm 2 mps 562 mmHg 27%
    11:00 +22°C° 0 mm 3 mps 562 mmHg 27%
    12:00 +23°C° 0 mm 4 mps 562 mmHg 26%
    13:00 +23°C° 0.1 mm 4 mps 561 mmHg 28%
    14:00 +23°C° 0.1 mm 4 mps 561 mmHg 29%
    15:00 +23°C° 0.1 mm 4 mps 560 mmHg 31%
    16:00 +22°C° 0.1 mm 4 mps 560 mmHg 37%
    17:00 +21°C° 0.1 mm 3 mps 560 mmHg 42%
    18:00 +20°C° 0.1 mm 3 mps 559 mmHg 48%
    19:00 +19°C° 0.1 mm 2 mps 560 mmHg 50%
    20:00 +19°C° 0.1 mm 2 mps 560 mmHg 52%
    21:00 +19°C° 0.1 mm 2 mps 560 mmHg 54%
    22:00 +19°C° 0 mm 1 mps 560 mmHg 56%
    23:00 +19°C° 0 mm 1 mps 560 mmHg 57%

    24 Septiembre, Martes

    Tiempo Temperatura Precipitaciones Viento Presión Humedad
    00:00 +19°C° 0 mm 1 mps 559 mmHg 58%
    01:00 +18°C° 0 mm 1 mps 559 mmHg 56%
    02:00 +18°C° 0 mm 1 mps 559 mmHg 55%
    03:00 +17°C° 0 mm 2 mps 558 mmHg 53%
    04:00 +16°C° 0 mm 2 mps 558 mmHg 51%
    05:00 +16°C° 0 mm 2 mps 558 mmHg 49%
    06:00 +15°C° 0 mm 2 mps 559 mmHg 47%
    07:00 +17°C° 0 mm 2 mps 560 mmHg 40%
    08:00 +19°C° 0 mm 2 mps 561 mmHg 34%
    09:00 +20°C° 0 mm 2 mps 562 mmHg 28%
    10:00 +21°C° 0 mm 2 mps 561 mmHg 26%
    11:00 +23°C° 0 mm 2 mps 561 mmHg 24%
    12:00 +24°C° 0 mm 2 mps 561 mmHg 22%
    13:00 +24°C° 0 mm 3 mps 561 mmHg 24%
    14:00 +23°C° 0 mm 4 mps 560 mmHg 27%
    15:00 +23°C° 0 mm 4 mps 560 mmHg 29%
    16:00 +22°C° 0.1 mm 4 mps 560 mmHg 35%
    17:00 +21°C° 0.1 mm 3 mps 559 mmHg 41%
    18:00 +20°C° 0.1 mm 3 mps 559 mmHg 47%
    19:00 +20°C° 0.2 mm 3 mps 559 mmHg 46%
    20:00 +19°C° 0.2 mm 3 mps 559 mmHg 46%
    21:00 +19°C° 0.2 mm 3 mps 560 mmHg 45%
    22:00 +18°C° 0 mm 3 mps 559 mmHg 43%
    23:00 +18°C° 0 mm 3 mps 559 mmHg 40%

    25 Septiembre, Miércoles

    Tiempo Temperatura Precipitaciones Viento Presión Humedad
    00:00 +17°C° 0 mm 2 mps 559 mmHg 37%
    01:00 +17°C° 0 mm 3 mps 558 mmHg 36%
    02:00 +16°C° 0 mm 3 mps 558 mmHg 36%
    03:00 +16°C° 0 mm 3 mps 558 mmHg 35%
    04:00 +14°C° 0 mm 3 mps 558 mmHg 36%
    05:00 +14°C° 0 mm 3 mps 558 mmHg 37%
    06:00 +14°C° 0 mm 3 mps 558 mmHg 38%
    07:00 +16°C° 0 mm 3 mps 559 mmHg 35%
    08:00 +18°C° 0 mm 3 mps 560 mmHg 32%
    09:00 +19°C° 0 mm 4 mps 561 mmHg 30%
    10:00 +20°C° 0 mm 3 mps 561 mmHg 28%
    11:00 +21°C° 0 mm 2 mps 561 mmHg 25%
    12:00 +23°C° 0 mm 2 mps 561 mmHg 23%
    13:00 +23°C° 0 mm 2 mps 561 mmHg 25%
    14:00 +22°C° 0 mm 3 mps 561 mmHg 26%
    15:00 +24°C° 0 mm 3 mps 560 mmHg 28%
    16:00 +22°C° 0.2 mm 3 mps 560 mmHg 33%
    17:00 +21°C° 0.2 mm 3 mps 560 mmHg 38%
    18:00 +20°C° 0.2 mm 3 mps 560 mmHg 44%
    19:00 +19°C° 0.1 mm 3 mps 560 mmHg 45%
    20:00 +19°C° 0.1 mm 3 mps 560 mmHg 47%
    21:00 +19°C° 0.1 mm 3 mps 560 mmHg 48%
    22:00 +18°C° 0 mm 3 mps 560 mmHg 48%
    23:00 +18°C° 0 mm 3 mps 560 mmHg 48%

    26 Septiembre, Jueves

    Tiempo Temperatura Precipitaciones Viento Presión Humedad
    00:00 +17°C° 0 mm 3 mps 560 mmHg 48%
    01:00 +17°C° 0 mm 3 mps 559 mmHg 49%
    02:00 +17°C° 0 mm 4 mps 559 mmHg 49%
    03:00 +15°C° 0 mm 4 mps 559 mmHg 50%
    04:00 +15°C° 0 mm 5 mps 559 mmHg 55%
    05:00 +14°C° 0 mm 5 mps 559 mmHg 59%
    06:00 +14°C° 0 mm 5 mps 559 mmHg 64%
    07:00 +15°C° 0.1 mm 5 mps 560 mmHg 57%
    08:00 +17°C° 0.1 mm 6 mps 561 mmHg 51%
    09:00 +19°C° 0.1 mm 6 mps 562 mmHg 44%
    10:00 +20°C° 0 mm 6 mps 562 mmHg 42%
    11:00 +21°C° 0 mm 6 mps 562 mmHg 39%
    12:00 +22°C° 0 mm 5 mps 562 mmHg 36%
    13:00 +21°C° 0 mm 5 mps 562 mmHg 38%
    14:00 +21°C° 0 mm 4 mps 561 mmHg 40%
    15:00 +21°C° 0 mm 4 mps 560 mmHg 41%
    16:00 +20°C° 0.2 mm 4 mps 560 mmHg 45%
    17:00 +19°C° 0.2 mm 4 mps 560 mmHg 49%
    18:00 +19°C° 0.2 mm 4 mps 560 mmHg 53%
    19:00 +18°C° 0.1 mm 3 mps 560 mmHg 52%
    20:00 +18°C° 0.1 mm 3 mps 560 mmHg 52%
    21:00 +18°C° 0.1 mm 2 mps 561 mmHg 52%
    22:00 +18°C° 0 mm 2 mps 560 mmHg 53%
    23:00 +17°C° 0 mm 2 mps 560 mmHg 53%
    Mostrar más